SCP
0 0 0 0 0 0 0 0 0 0 0 0 0 0 0 0 0 0 0 0 0 1 0 0 1 0 0 0 0 0 0 0 0 0 0 0 0 0 0 0 0 0 0 0 0 0 0 0 0
0 0 0 0 0 0 0 0 0 0 0 0 0 0 0 0 0 0 0 0 0 1 1 1 1 0 0 0 0 0 0 0 0 0 0 0 0 0 0 0 0 0 0 0 0 0 0 0 0
0 0 0 0 0 0 0 0 0 0 0 0 0 0 0 0 0 0 0 0 0 1 1 1 1 1 0 0 0 0 0 0 0 0 0 0 0 0 0 0 0 0 0 0 0 0 0 0 0
0 0 0 0 0 0 0 0 0 0 0 0 0 0 0 0 0 0 0 0 1 1 1 1 1 1 0 0 0 0 0 0 0 0 0 0 0 0 0 0 0 0 0 0 0 0 0 0 0
0 0 0 0 0 0 0 0 0 0 0 0 0 0 0 0 0 0 0 0 1 1 1 1 1 1 0 0 0 0 0 0 0 0 0 0 0 0 0 0 0 0 0 0 0 0 0 0 0
0 0 0 0 0 0 0 0 0 0 0 0 0 0 0 0 0 0 0 0 1 1 1 1 1 1 0 0 0 0 0 0 0 0 0 0 0 0 0 0 0 0 0 0 0 0 0 0 0
0 0 0 0 0 0 0 0 0 0 0 0 0 0 0 0 0 0 0 0 1 1 1 1 0 0 0 0 0 0 0 0 0 0 0 0 0 0 0 0 0 0 0 0 0 0 0 0 0
0 0 0 0 0 0 0 0 0 0 0 0 0 0 0 0 0 0 0 0 1 1 1 0 0 0 0 0 0 0 0 0 0 0 0 0 0 0 0 0 0 0 0 0 0 0 0 0 0
0 0 0 0 0 0 0 0 0 0 0 0 0 0 0 0 0 0 0 0 0 0 0 0 0 0 0 0 0 0 0 0 0 0 0 0 0 0 0 0 0 0 0 0 0 0 0 0 0
0 0 0 0 0 0 0 0 0 0 0 0 0 0 0 0 0 0 0 0 0 0 0 0 0 0 0 0 0 0 0 0 0 0 0 0 0 0 0 0 0 0 0 0 0 0 0 0 0
0 0 0 0 0 0 0 0 0 0 0 0 0 0 0 0 0 0 0 0 0 0 0 0 0 0 0 0 0 0 0 0 0 0 0 0 0 0 0 0 0 0 0 0 0 0 0 0 0
0 0 0 0 0 0 0 0 0 0 0 0 0 0 0 0 0 0 0 0 0 0 0 0 0 0 0 0 0 0 0 0 0 0 0 0 0 0 0 0 0 0 0 0 0 0 0 0 0
0 0 0 0 0 0 0 0 0 0 0 0 0 0 0 0 0 0 0 0 0 0 0 0 0 0 0 0 0 0 0 0 0 0 0 0 0 0 0 0 0 0 0 0 0 0 0 0 0
0 0 0 0 0 0 0 0 0 0 0 0 0 0 0 0 0 0 0 0 0 0 0 0 0 0 0 0 0 0 0 0 0 0 0 0 0 0 0 0 0 0 0 0 0 0 0 0 0
0 0 0 0 0 0 0 0 0 0 0 0 0 0 0 0 0 0 0 0 0 0 0 0 0 0 0 0 0 0 0 0 0 0 0 0 0 0 0 0 0 0 0 0 0 0 0 0 0
0 0 0 0 0 0 0 0 0 0 0 0 0 0 0 0 0 0 0 0 0 0 0 0 0 0 0 0 0 0 0 0 0 0 0 0 0 0 0 0 0 0 0 0 0 0 0 0 0
0 0 0 0 0 0 0 0 0 0 0 0 0 0 0 0 0 0 0 0 0 0 0 0 0 0 0 0 0 0 0 0 0 0 0 0 0 0 0 0 0 0 0 0 0 0 0 0 0
0 0 0 0 0 0 0 0 0 0 0 0 0 0 0 0 0 0 0 0 0 0 0 0 0 0 0 0 0 0 0 0 0 0 0 0 0 0 0 0 0 0 0 0 0 0 0 0 0
0 0 0 0 0 0 0 0 0 0 0 0 0 0 0 0 0 0 0 0 0 0 0 0 0 0 0 0 0 0 0 0 0 0 0 0 0 0 0 0 0 0 0 0 0 0 0 0 0
0 0 0 0 0 0 0 0 0 0 0 0 0 0 0 0 0 0 0 0 0 0 0 0 0 0 0 0 0 0 0 0 0 0 0 0 0 0 0 0 0 0 0 0 0 0 0 0 0
0 0 0 0 0 0 0 0 0 0 0 0 0 0 0 0 0 0 0 0 0 0 0 0 0 0 0 0 0 0 0 0 0 0 0 0 0 0 0 0 0 0 0 0 0 0 0 0 0
0 0 0 0 0 0 0 0 0 0 0 0 0 0 0 0 0 0 0 0 0 0 0 0 0 0 0 0 0 0 0 0 0 0 0 0 0 0 0 0 0 0 0 0 0 0 0 0 0
0 0 0 0 0 0 0 0 0 0 0 0 0 0 0 0 0 0 0 0 -0 0 0 0 0 0 0 0 0 0 0 0 0 0 0 0 0 0 0 0 0 0 0 0 0 0 0 0 0
0 0 0 0 0 0 0 0 0 0 0 0 0 0 0 0 0 0 0 0 -0 -0 0 0 0 0 0 0 0 0 0 0 0 0 0 0 0 0 0 0 0 0 0 0 0 0 0 0 0
0 0 0 0 0 0 0 0 0 0 0 0 0 0 0 0 0 0 0 0 -0 -0 0 0 0 0 0 0 0 0 0 0 0 0 0 0 0 0 0 0 0 0 0 0 0 0 0 0 0
0 0 0 0 0 0 0 0 0 0 0 0 0 0 0 0 0 0 0 0 0 -0 -0 -0 0 0 0 0 0 0 0 0 0 0 0 0 0 0 0 0 0 0 0 0 0 0 0 0 0
0 0 0 0 0 0 0 0 0 0 0 0 0 0 0 0 0 0 0 0 0 0 -0 0 0 0 0 0 0 0 0 0 0 0 0 0 0 0 0 0 0 0 0 0 0 0 0 0 0
0 0 0 0 0 0 0 0 0 0 0 0 0 0 0 -0 0 0 0 0 0 0 0 0 0 0 0 0 0 0 0 0 0 0 0 0 0 0 0 0 0 0 0 0 0 0 0 0 0
0 0 0 0 0 0 0 0 0 0 0 0 0 -0 0 -0 0 0 0 0 0 0 0 0 0 0 0 0 0 0 0 0 0 0 0 0 0 0 0 0 0 0 0 0 0 0 0 0 0
0 0 0 0 0 0 0 0 0 0 0 0 0 -0 0 0 -0 0 0 0 0 0 0 0 0 0 0 0 0 0 0 0 0 0 0 0 0 0 0 0 0 0 0 0 0 0 0 0 0
Wind_Speed
4 3 2 3 5 6 10 7 5 5 6 3 3 5 6 4 2 2 5 5 6 8 9 10 9 10 10 9 9 8 8 8 8 8 8 8 7 7 7 8 7 7 7 7 7 7 7 7 7
3 2 3 3 6 9 8 7 7 5 3 2 2 4 5 3 2 4 4 4 6 7 8 9 9 10 10 9 9 8 8 8 8 8 8 7 7 7 7 7 7 6 6 6 6 6 6 6 6
1 2 3 4 6 9 6 4 5 3 3 3 3 2 2 2 3 3 3 4 6 7 8 9 9 9 9 9 9 8 8 8 7 7 7 7 6 6 6 7 6 6 6 5 6 6 6 6 5
2 2 3 5 9 7 5 1 2 5 4 3 4 3 2 2 1 2 3 4 6 7 7 9 8 9 9 8 8 8 8 7 7 6 6 6 6 6 6 6 6 5 5 5 5 5 5 5 4
2 3 5 6 8 6 5 3 4 6 5 4 5 4 3 2 2 3 4 5 6 6 6 8 8 8 8 8 8 7 7 6 6 6 6 6 6 6 5 5 5 5 4 4 4 4 4 4 4
2 3 5 7 8 5 4 4 4 6 4 3 4 4 3 3 3 3 4 5 5 6 6 7 8 7 8 8 7 6 6 5 5 5 5 5 5 5 5 5 5 4 4 4 4 3 3 3 3
3 3 5 6 6 5 4 4 5 5 6 4 3 4 3 4 3 3 4 5 5 5 5 6 6 7 7 7 7 6 6 5 5 5 5 5 4 4 4 4 4 3 3 3 3 3 3 3 3
1 3 4 5 6 5 3 3 4 6 5 1 3 4 3 4 3 4 5 5 5 5 5 5 5 5 5 6 7 6 6 6 5 5 4 4 4 4 3 3 3 2 2 1 2 2 2 2 3
2 4 5 5 5 4 2 3 3 2 3 3 3 2 1 6 6 6 5 5 4 4 4 4 4 4 4 4 5 6 6 5 4 4 4 2 3 3 3 3 3 2 1 1 1 1 1 2 3
3 4 4 2 3 3 3 4 3 4 5 4 3 1 4 6 7 8 7 6 5 3 3 3 4 4 4 3 3 3 3 4 3 2 3 1 1 1 1 4 2 1 1 1 1 1 2 4 3
2 4 2 3 4 3 3 3 3 5 6 6 5 5 6 7 7 7 7 6 5 4 3 4 4 4 4 3 2 2 2 2 2 3 2 1 1 1 1 1 2 2 2 2 2 3 3 3 2
2 1 2 3 3 4 4 3 4 6 5 4 3 6 8 8 7 7 6 6 5 4 3 4 4 4 3 3 2 2 2 2 2 3 2 1 1 1 1 0 0 1 1 1 1 2 3 3 4
2 2 2 3 4 4 4 5 5 6 5 3 3 6 7 7 6 5 5 5 5 4 3 3 4 4 3 3 2 2 2 2 2 2 2 2 1 1 1 0 1 1 1 1 2 2 3 3 4
1 2 3 3 3 3 3 5 4 5 3 2 4 6 6 6 6 5 5 4 4 4 4 3 4 4 4 3 2 2 2 2 2 2 3 3 2 1 1 1 1 1 2 2 2 3 3 3 3
2 3 2 1 3 2 4 5 5 3 2 3 4 5 5 5 6 5 5 4 4 4 4 4 4 4 4 3 3 2 2 2 2 2 3 3 3 2 2 1 1 2 2 2 2 3 3 3 3
2 3 2 0 2 1 4 6 2 1 3 4 4 4 4 5 5 5 4 4 4 3 3 3 3 4 4 3 3 2 2 2 2 2 2 3 3 3 2 2 2 2 2 2 2 2 3 3 3
1 2 3 1 0 2 4 6 2 2 3 4 4 4 4 4 5 5 5 4 4 4 4 4 4 4 4 3 2 2 2 2 2 2 2 2 3 3 2 2 2 2 2 2 2 2 3 3 3
1 2 3 3 1 3 6 8 5 3 4 4 4 4 5 5 5 4 5 5 4 4 4 4 5 4 4 3 2 2 2 2 2 2 2 2 2 3 2 2 3 3 2 2 2 2 2 3 3
2 4 4 3 3 4 6 8 7 3 3 4 4 4 4 5 3 4 4 5 5 5 5 5 5 4 4 3 2 2 2 1 1 1 2 2 2 2 2 2 2 2 2 3 3 3 3 2 3
2 4 4 2 2 4 5 7 5 2 3 3 4 4 4 4 4 4 4 5 6 6 6 5 5 4 3 2 1 1 1 1 1 1 1 2 2 2 2 2 2 3 2 3 3 3 2 2 2
2 3 3 4 4 2 4 4 3 2 1 1 2 3 3 4 5 5 5 5 5 5 6 5 5 4 4 3 2 2 1 1 1 1 0 1 1 2 2 2 2 3 3 2 3 2 3 3 2
2 1 3 3 4 1 3 3 3 2 2 1 1 2 3 3 4 4 5 5 5 5 5 5 5 4 4 4 3 3 2 2 1 0 0 0 1 1 2 2 2 2 2 3 3 2 3 3 3
1 1 2 3 3 3 2 4 3 2 3 2 2 2 3 3 4 4 4 4 4 4 4 4 5 4 4 4 4 3 3 2 1 1 1 1 1 1 2 2 2 2 2 3 3 3 3 3 3
1 1 2 2 3 3 2 4 3 2 3 2 2 2 2 3 3 3 3 3 3 4 4 4 4 5 4 4 4 4 4 3 2 2 2 1 1 1 1 2 2 2 2 3 3 3 3 3 3
1 2 1 2 2 2 1 4 5 0 1 2 2 2 2 2 2 2 3 3 4 4 4 4 5 4 4 4 4 4 4 4 4 3 3 2 2 2 2 2 2 2 2 3 3 3 3 4 4
1 2 1 3 3 1 2 6 2 1 1 2 2 2 2 2 2 2 3 3 3 4 4 5 5 5 4 4 4 4 4 3 3 3 3 3 3 2 2 3 3 3 3 3 3 3 4 4 4
2 2 1 1 2 4 4 4 4 2 2 3 3 3 2 2 1 1 2 3 3 3 4 4 5 5 5 5 5 4 4 4 4 4 4 3 3 3 3 3 3 3 4 4 4 3 4 4 4
2 2 3 3 3 4 4 5 3 4 4 4 4 3 2 1 1 1 2 2 3 3 3 3 4 5 5 5 4 4 4 4 4 4 4 4 4 3 4 4 4 3 4 4 4 4 4 5 4
4 4 3 3 3 4 5 3 1 4 4 4 3 2 1 2 2 2 2 2 3 3 3 3 4 4 4 4 4 4 4 4 4 4 5 4 4 4 4 4 4 4 4 4 4 5 5 5 5
5 5 6 4 5 5 5 5 2 3 3 3 3 2 3 3 3 2 3 3 3 3 3 3 3 4 4 4 4 4 4 4 5 5 5 5 5 5 5 5 5 5 5 5 5 5 5 6 6
Wind_Direction
317 308 262 228 214 224 231 217 214 201 203 210 233 233 227 213 236 79 82 127 134 146 147 149 145 140 137 134 130 127 125 126 126 124 124 125 124 127 126 126 121 119 118 118 116 114 112 115 113
315 284 226 222 229 224 224 216 213 215 194 171 202 219 209 187 45 83 123 125 141 145 147 145 138 138 138 138 136 133 131 128 125 123 123 123 123 121 125 125 121 118 116 115 117 117 117 117 119
291 278 229 210 228 236 225 202 212 206 190 205 191 241 232 140 119 116 111 146 146 146 145 133 134 135 135 141 137 134 133 129 125 123 123 125 125 120 118 123 119 115 112 114 122 123 122 124 124
242 199 215 228 226 237 256 226 209 191 194 218 205 182 153 67 65 100 126 152 147 143 141 133 133 132 133 135 135 134 133 130 127 125 124 123 122 122 118 118 119 119 118 119 127 134 132 129 131
237 222 210 222 232 237 254 266 235 215 202 203 210 195 165 112 76 114 130 143 141 136 135 134 130 131 133 131 128 129 131 127 126 126 124 123 119 114 114 113 119 126 131 133 135 141 144 144 144
192 220 222 226 222 228 241 240 239 232 221 210 214 199 150 133 121 114 121 126 126 125 128 131 122 124 131 126 124 120 117 116 119 125 124 120 116 115 114 110 115 121 127 134 142 144 153 158 165
224 218 241 242 233 224 229 228 237 237 230 216 222 202 155 160 120 116 125 121 117 119 124 130 130 125 121 116 113 111 108 109 103 109 112 108 105 108 115 112 119 124 129 129 140 155 163 171 175
265 228 226 233 234 236 221 232 251 243 239 210 224 215 183 162 130 123 120 116 111 115 118 126 129 131 132 130 112 108 103 98 93 86 94 105 118 124 122 132 116 119 121 128 136 150 178 193 193
233 229 228 227 234 242 221 238 247 269 224 212 234 278 71 138 146 138 127 119 103 98 104 119 120 118 121 127 121 119 111 99 104 99 87 143 157 150 149 106 88 91 99 111 136 163 181 221 197
223 233 239 256 261 267 248 257 239 221 223 221 211 171 140 154 163 161 154 148 136 118 117 117 115 108 107 103 116 116 117 114 115 108 108 137 137 124 125 112 96 94 121 188 191 231 216 234 217
221 249 272 270 281 282 253 258 239 235 234 232 219 184 169 166 175 172 161 156 149 138 121 116 110 103 101 95 96 92 94 101 107 100 92 84 117 131 140 146 152 174 202 211 202 220 230 241 241
199 262 275 285 295 272 261 257 251 248 270 304 238 180 174 175 176 173 160 156 147 139 124 122 119 114 98 90 83 88 85 84 80 78 73 68 70 113 102 127 174 236 246 264 255 259 253 254 251
222 253 279 285 277 271 260 258 269 266 288 287 183 168 177 177 173 170 157 152 154 148 137 132 127 122 115 103 83 78 72 64 65 65 62 57 48 66 70 22 355 310 304 283 277 269 272 267 263
290 270 277 285 267 262 263 274 257 267 278 214 176 179 182 181 176 167 162 165 166 156 147 137 134 127 120 112 102 82 75 75 61 58 56 49 31 18 16 11 354 336 317 304 284 287 277 271 269
254 256 253 277 279 280 269 259 236 260 233 213 199 187 180 185 181 180 176 176 173 164 157 148 144 133 126 119 107 90 81 74 67 59 54 53 40 18 8 3 355 345 329 309 298 296 286 282 277
237 229 237 168 290 282 256 258 232 204 205 217 209 198 189 190 190 189 181 174 167 160 160 151 144 139 134 122 114 103 86 79 76 67 58 50 44 22 6 3 356 345 335 322 307 304 294 285 284
204 252 262 233 311 279 250 263 270 246 229 230 220 213 207 203 199 194 185 173 166 162 160 152 149 144 130 119 115 108 105 89 78 72 59 44 39 24 5 357 350 340 336 333 321 316 306 296 291
268 270 264 266 335 285 258 266 275 261 241 234 222 216 213 212 207 190 182 169 162 161 161 160 151 140 134 132 131 128 115 94 80 71 58 40 28 19 3 351 350 343 329 331 328 318 312 300 300
281 270 277 294 331 282 261 274 283 274 238 233 229 219 218 217 199 179 176 167 162 164 166 167 154 149 151 153 158 155 140 118 102 72 57 41 22 9 356 349 345 338 332 332 331 325 315 322 316
246 264 279 291 332 293 279 281 280 261 241 241 235 220 212 204 191 183 182 174 175 172 173 169 164 163 164 161 148 134 122 119 95 87 62 24 6 358 346 341 335 334 328 329 334 332 313 318 331
264 270 288 301 317 259 289 257 198 169 216 243 241 231 215 208 200 189 184 180 180 181 182 176 171 168 168 160 142 140 153 170 172 171 105 24 358 348 334 326 325 329 322 318 321 320 312 305 306
263 263 267 281 279 275 306 268 209 188 209 228 217 197 199 197 198 188 183 182 184 185 177 177 170 168 172 174 182 186 203 212 210 214 245 315 328 328 322 314 317 317 314 307 304 303 295 285 287
304 320 259 263 258 263 227 257 232 166 219 228 218 201 191 191 186 181 186 188 184 178 174 173 168 171 176 188 197 205 217 226 210 211 236 265 285 310 310 303 301 297 296 300 300 293 284 283 281
235 233 187 201 237 250 229 253 249 185 220 215 207 203 187 180 174 170 171 176 177 174 173 174 177 182 185 195 203 213 218 221 224 235 245 250 256 265 277 283 280 282 287 290 289 282 274 274 272
273 268 263 232 229 245 124 251 261 134 245 238 228 220 201 179 172 175 179 183 181 180 179 181 187 193 194 201 211 215 222 225 233 244 249 256 254 251 262 274 278 279 279 279 279 278 278 273 268
233 277 283 283 284 293 205 243 259 62 255 244 228 216 179 162 178 194 201 200 195 193 192 194 198 203 203 209 214 219 220 224 231 239 248 252 258 265 269 268 275 279 277 273 270 269 269 267 263
190 198 332 288 282 268 242 257 267 184 183 180 179 176 169 155 170 206 216 218 212 204 203 204 207 211 208 209 213 218 223 225 229 238 245 253 258 263 260 260 265 269 271 270 270 265 266 266 265
304 165 184 214 264 266 256 244 231 176 174 167 171 178 180 190 203 236 229 223 223 218 207 205 214 218 216 214 215 218 224 228 233 236 237 243 250 253 255 254 254 258 260 261 260 263 263 263 263
176 189 216 225 263 270 274 251 152 194 187 185 184 196 226 244 254 259 243 225 219 216 206 204 212 217 217 221 225 226 229 230 234 237 240 243 245 245 248 250 251 252 255 258 258 258 261 261 262
241 226 209 228 227 238 269 272 105 213 211 211 225 261 281 276 263 251 243 226 218 219 216 216 215 217 222 223 227 232 237 235 236 240 243 243 243 241 241 244 246 247 250 254 257 259 259 259 260